Home   Weather   Stillwater   Past weeks

Flag for USA Past Weather in Stillwater, Minnesota, USA — Yesterday and Last 2 Weeks

Now
33 °F

Fog.


Feels Like: 27 °F
Forecast: 30 / 35 °F
Wind: 7 mph from South

Location: St. Paul Downtown Holman Field

Current Time: Dec 4, 2016 at 12:42:10 pm

Latest Report: Dec 4, 2016 at 11:53 am


Visibility: 3 mi

Pressure: 29.86 "Hg

Humidity: 100%

Dew Point: 33 °F

Location of StillwaterLocation

Past Weather in Stillwater — Graph

°F

Stillwater Temperature Yesterday

Maximum temperature yesterday: 32 °F (at 1:53 pm)
Minimum temperature yesterday: 29 °F (at 4:53 am)
Average temperature yesterday: 30 °F

High & Low Weather Summary for the Past Weeks

 TemperatureHumidityPressure
High54 °F (Nov 28, 9:53 am)100% (Nov 22, 9:53 pm)30.47 "Hg (Nov 22, 9:53 pm)
Low23 °F (Nov 19, 10:53 pm)48% (Nov 21, 2:53 pm)29.00 "Hg (Nov 28, 3:53 pm)
Average34 °F84%29.98 "Hg
* Reported Nov 19 10:53 am — Dec 4 10:53 am, Stillwater, Weather by CustomWeather, © 2016

Note: Actual official high and low records may vary slightly from our data, if they occured in-between our weather recording intervals... More about our weather records

Advertising

Stillwater Weather History for the Previous 24 Hours

Scroll right to see more
 ConditionsComfort  
Time TempWeatherWind HumidityBarometerVisibility
10:53 am
Sun, Dec 4
33 °FFog.9 mph100%29.90 "Hg1 mi
9:53 am33 °FFog.12 mph100%29.92 "Hg3 mi
8:53 am33 °FFog.9 mph100%29.94 "Hg4 mi
7:53 am32 °FLight snow. Ice fog.12 mph100%29.95 "Hg1 mi
6:55 am32 °FLight snow. Ice fog.12 mph100%29.96 "Hg1 mi
6:02 am32 °FLight snow. Ice fog.10 mph100%29.98 "Hg1 mi
5:53 am32 °FLight snow. Ice fog.10 mph100%30.01 "Hg1 mi
5:02 am32 °FLight snow. Ice fog.12 mph100%30.01 "Hg1 mi
4:04 am32 °FLight snow. Ice fog.9 mph96%30.04 "Hg1 mi
3:53 am31 °FLight snow. Ice fog.9 mph100%30.06 "Hg1 mi
2:53 am31 °FLight snow. Ice fog.10 mph100%30.10 "Hg1 mi
2:03 am31 °FLight snow. Ice fog.10 mph96%30.10 "Hg2 mi
1:53 am31 °FLight snow. Ice fog.12 mph96%30.12 "Hg2 mi
12:53 am30 °FLight snow. Ice fog.13 mph96%30.14 "Hg1 mi
12:02 am31 °FLight snow. Ice fog.10 mph89%30.14 "Hg2 mi
10:53 pm
Sat, Dec 3
32 °FLight snow. Overcast.13 mph79%30.17 "Hg6 mi
9:53 pm32 °FOvercast.12 mph79%30.18 "Hg10 mi
8:53 pm32 °FOvercast.10 mph75%30.19 "Hg10 mi
7:53 pm31 °FOvercast.9 mph79%30.21 "Hg10 mi
6:53 pm31 °FOvercast.9 mph76%30.24 "Hg10 mi
5:53 pm31 °FOvercast.9 mph76%30.26 "Hg10 mi
4:53 pm31 °FOvercast.10 mph73%30.27 "Hg10 mi
3:53 pm30 °FScattered clouds.9 mph72%30.28 "Hg10 mi
2:53 pm31 °FPassing clouds.12 mph67%30.27 "Hg10 mi
1:53 pm32 °FScattered clouds.8 mph64%30.27 "Hg10 mi
12:53 pm31 °FPartly sunny.No wind67%30.29 "Hg10 mi
Weather by CustomWeather, © 2016

See weather overviewHow to use our weather pages